| time (UTC) | temp F | wind direction | speed MPH | gust MPH | rain 1hr in | rain 24hr in | rain mn in | humidity % | barometer mb |
| 20260506073059 | 76 | 130 | 2.0 | 9.0 | 0.00 | 0.00 | 0.00 | 88 | 1008.7 |
| 20260506071557 | 76 | 141 | 2.0 | 6.0 | 0.00 | 0.00 | 0.00 | 88 | 1008.9 |
| 20260506070119 | 76 | 221 | 3.0 | 9.0 | 0.00 | 0.00 | 0.00 | 87 | 1008.9 |
| 20260506061553 | 76 | 202 | 2.0 | 10.0 | 0.00 | 0.00 | 0.00 | 87 | 1008.9 |
| 20260506044551 | 77 | 137 | 2.0 | 7.0 | 0.00 | 0.00 | 0.00 | 87 | 1009.0 |
| 20260506043051 | 77 | 146 | 2.0 | 8.0 | 0.00 | 0.00 | 0.00 | 86 | 1009.1 |
| 20260506041554 | 77 | 139 | 1.0 | 8.0 | 0.00 | 0.00 | 0.00 | 86 | 1009.0 |
| 20260506040056 | 77 | 158 | 2.0 | 5.0 | 0.00 | 0.00 | 0.00 | 86 | 1008.7 |
| 20260506034600 | 77 | 214 | 1.0 | 6.0 | 0.00 | 0.00 | 0.00 | 85 | 1008.6 |
| 20260506033052 | 78 | 161 | 2.0 | 8.0 | 0.00 | 0.00 | 0.00 | 84 | 1008.5 |
| 20260506031600 | 78 | 138 | 0.0 | 6.0 | 0.00 | 0.00 | 0.00 | 84 | 1008.2 |
| 20260506030058 | 78 | 0 | 0.0 | 4.0 | 0.00 | 0.00 | 0.00 | 83 | 1008.0 |
| 20260506024601 | 79 | 124 | 2.0 | 6.0 | 0.00 | 0.00 | 0.00 | 82 | 1007.9 |
| 20260506023052 | 79 | 133 | 2.0 | 7.0 | 0.00 | 0.00 | 0.00 | 81 | 1007.5 |
| 20260506021550 | 80 | 172 | 2.0 | 8.0 | 0.00 | 0.00 | 0.00 | 79 | 1007.2 |
| 20260506020107 | 80 | 141 | 2.0 | 5.0 | 0.00 | 0.00 | 0.00 | 78 | 1007.0 |
| 20260506014610 | 81 | 174 | 1.0 | 5.0 | 0.00 | 0.00 | 0.00 | 78 | 1006.8 |
| 20260506013052 | 81 | 103 | 2.0 | 5.0 | 0.00 | 0.00 | 0.00 | 77 | 1006.9 |
| 20260506011617 | 82 | 136 | 0.0 | 4.0 | 0.00 | 0.00 | 0.00 | 76 | 1006.9 |
| 20260506010053 | 82 | 155 | 0.0 | 2.0 | 0.00 | 0.00 | 0.00 | 75 | 1006.9 |
| 20260506004607 | 82 | 0 | 0.0 | 2.0 | 0.00 | 0.00 | 0.00 | 75 | 1006.8 |
| 20260506003055 | 83 | 118 | 0.0 | 4.0 | 0.00 | 0.00 | 0.00 | 74 | 1006.8 |
| 20260506001602 | 83 | 0 | 0.0 | 6.0 | 0.00 | 0.00 | 0.00 | 73 | 1006.7 |
| 20260506000120 | 83 | 205 | 2.0 | 5.0 | 0.00 | 0.00 | 0.00 | 72 | 1006.5 |
| 20260505234556 | 83 | 168 | 2.0 | 5.0 | 0.00 | 0.00 | 0.00 | 73 | 1006.4 |
| 20260505233059 | 84 | 184 | 2.0 | 10.0 | 0.00 | 0.00 | 0.00 | 72 | 1006.3 |
| 20260505231612 | 84 | 106 | 3.0 | 8.0 | 0.00 | 0.00 | 0.00 | 71 | 1006.2 |
| 20260505230105 | 84 | 194 | 2.0 | 7.0 | 0.00 | 0.00 | 0.00 | 71 | 1006.0 |
| 20260505224557 | 84 | 58 | 2.0 | 6.0 | 0.00 | 0.00 | 0.00 | 70 | 1006.0 |
| 20260505223049 | 84 | 215 | 3.0 | 10.0 | 0.00 | 0.00 | 0.00 | 69 | 1005.9 |
| 20260505221559 | 85 | 167 | 2.0 | 9.0 | 0.00 | 0.00 | 0.00 | 69 | 1006.0 |
| 20260505220053 | 85 | 181 | 3.0 | 11.0 | 0.00 | 0.00 | 0.00 | 69 | 1006.1 |
| 20260505214554 | 85 | 179 | 5.0 | 12.0 | 0.00 | 0.00 | 0.00 | 68 | 1006.5 |
| 20260505213056 | 84 | 167 | 4.0 | 12.0 | 0.00 | 0.00 | 0.00 | 68 | 1006.5 |
| 20260505211557 | 85 | 193 | 4.0 | 12.0 | 0.00 | 0.00 | 0.00 | 68 | 1006.5 |
| 20260505210055 | 84 | 186 | 4.0 | 12.0 | 0.00 | 0.00 | 0.00 | 70 | 1006.7 |
| 20260505204600 | 84 | 184 | 2.0 | 11.0 | 0.00 | 0.00 | 0.00 | 70 | 1007.0 |
| 20260505203059 | 83 | 181 | 3.0 | 9.0 | 0.00 | 0.00 | 0.00 | 72 | 1007.5 |
| 20260505201555 | 82 | 178 | 5.0 | 8.0 | 0.00 | 0.00 | 0.00 | 73 | 1007.6 |
| 20260505200052 | 82 | 149 | 2.0 | 8.0 | 0.00 | 0.00 | 0.00 | 73 | 1007.8 |
| 20260505194617 | 82 | 122 | 3.0 | 8.0 | 0.00 | 0.00 | 0.00 | 73 | 1008.1 |
| 20260505193052 | 81 | 52 | 3.0 | 9.0 | 0.00 | 0.00 | 0.00 | 74 | 1008.2 |
| 20260505191606 | 81 | 178 | 5.0 | 10.0 | 0.00 | 0.00 | 0.00 | 74 | 1008.2 |
| 20260505190055 | 81 | 167 | 2.0 | 9.0 | 0.00 | 0.00 | 0.00 | 75 | 1008.4 |
| 20260505184554 | 79 | 200 | 5.0 | 10.0 | 0.00 | 0.00 | 0.00 | 77 | 1008.5 |
| 20260505183056 | 79 | 204 | 3.0 | 9.0 | 0.00 | 0.00 | 0.00 | 78 | 1008.8 |
| 20260505181555 | 78 | 152 | 3.0 | 11.0 | 0.00 | 0.00 | 0.00 | 79 | 1008.9 |
| 20260505174556 | 76 | 201 | 3.0 | 10.0 | 0.00 | 0.00 | 0.00 | 81 | 1009.3 |
| 20260505173112 | 76 | 167 | 4.0 | 11.0 | 0.00 | 0.00 | 0.00 | 82 | 1009.4 |
| 20260505171618 | 75 | 221 | 4.0 | 9.0 | 0.00 | 0.00 | 0.00 | 82 | 1009.4 |
| 20260505170053 | 75 | 176 | 3.0 | 9.0 | 0.00 | 0.00 | 0.00 | 83 | 1009.5 |
| 20260505164604 | 74 | 167 | 5.0 | 12.0 | 0.00 | 0.00 | 0.00 | 84 | 1009.3 |
| 20260505163049 | 74 | 151 | 4.0 | 10.0 | 0.00 | 0.00 | 0.00 | 85 | 1009.4 |
| 20260505161556 | 73 | 181 | 3.0 | 8.0 | 0.00 | 0.00 | 0.00 | 85 | 1009.4 |
| 20260505153054 | 72 | 175 | 3.0 | 8.0 | 0.00 | 0.00 | 0.00 | 87 | 1009.7 |
| 20260505151558 | 72 | 177 | 3.0 | 9.0 | 0.00 | 0.00 | 0.00 | 87 | 1009.5 |
| 20260505150110 | 72 | 187 | 5.0 | 11.0 | 0.00 | 0.00 | 0.00 | 88 | 1009.3 |
| 20260505124557 | 71 | 191 | 4.0 | 10.0 | 0.00 | 0.00 | 0.00 | 88 | 1008.2 |
| 20260505123100 | 71 | 195 | 5.0 | 11.0 | 0.00 | 0.00 | 0.00 | 88 | 1008.1 |
| 20260505121624 | 71 | 212 | 4.0 | 13.0 | 0.00 | 0.00 | 0.00 | 88 | 1007.9 |
| 20260505120057 | 71 | 180 | 7.0 | 12.0 | 0.00 | 0.00 | 0.00 | 88 | 1007.8 |
| 20260505114554 | 71 | 166 | 4.0 | 11.0 | 0.00 | 0.00 | 0.00 | 88 | 1007.8 |
| 20260505113057 | 71 | 168 | 4.0 | 12.0 | 0.00 | 0.00 | 0.00 | 87 | 1007.9 |
| 20260505111555 | 71 | 193 | 7.0 | 14.0 | 0.00 | 0.00 | 0.00 | 87 | 1007.8 |
| 20260505101558 | 70 | 205 | 4.0 | 11.0 | 0.00 | 0.00 | 0.00 | 87 | 1008.1 |
| 20260505100135 | 70 | 198 | 5.0 | 15.0 | 0.00 | 0.00 | 0.00 | 86 | 1008.2 |
| 20260505094558 | 71 | 169 | 5.0 | 13.0 | 0.00 | 0.00 | 0.00 | 86 | 1008.1 |
| 20260505093053 | 71 | 195 | 6.0 | 15.0 | 0.00 | 0.00 | 0.00 | 86 | 1008.2 |
| 20260505091616 | 71 | 214 | 4.0 | 11.0 | 0.00 | 0.00 | 0.00 | 85 | 1008.1 |
| 20260505084600 | 71 | 174 | 6.0 | 15.0 | 0.00 | 0.00 | 0.00 | 85 | 1008.2 |
| 20260505083054 | 71 | 193 | 4.0 | 12.0 | 0.00 | 0.00 | 0.00 | 85 | 1008.2 |
| 20260505081557 | 71 | 205 | 5.0 | 11.0 | 0.00 | 0.00 | 0.00 | 86 | 1008.6 |